Date String (YYYY-MM-DD hh:mm:ss) UTC,Instrument flags,absolute air pressure of the measurement (hPa),sample flow rate (lpm),inlet stack bypass flow (lpm),air temperature of the measurement (°C),ambient temperature measured by the external sensor (°C),aerosol sample conditioner tube jacket temperature (°C),OPC LED temperature (°C),internal box temperature (°C),relative humidity of the measurement (%),span deviation,mass concentration of particles derived from Lorenz-Mie calculation of OPC scattering (μg/m³),mass concentration of particles derived from Lorenz-Mie calculation of OPC scattering (μg/m³),mass concentration of particles derived from Lorenz-Mie calculation of OPC scattering (μg/m³)
DateTimeUTC,F1_M11,P_M11,Q1_M11,Q2_M11,T1_M11,T2_M11,T3_M11,T4_M11,T5_M11,U1_M11,ZSPAN_M11,X0_M11,X2_M11,X1_M11
2024-03-04 00:00:00,SystemResetWarning,0815.9,5.01,000.00,018.9,018.2,000.0,027.3,020.6,13.9,0000.0,0006.11,0000.66,0000.25
2024-03-04 00:01:00,SystemResetWarning,0815.9,5.00,000.00,018.9,018.2,000.0,027.3,020.6,14.0,0000.0,0007.19,0000.65,0000.25
2024-03-04 00:02:00,SystemResetWarning,0815.9,5.00,000.00,018.9,018.2,000.0,027.3,020.6,14.0,0000.0,0006.95,0000.65,0000.25
2024-03-04 00:03:00,SystemResetWarning,0815.8,5.00,000.00,018.9,018.2,000.0,027.3,020.6,13.8,0000.0,0007.34,0000.67,0000.25
2024-03-04 00:04:00,SystemResetWarning,0815.8,5.00,000.00,018.9,018.2,000.0,027.3,020.6,13.9,0000.0,0006.78,0000.69,0000.25
2024-03-04 00:05:00,SystemResetWarning,0815.8,5.00,000.00,018.9,018.2,000.0,027.3,020.6,13.9,0000.0,0006.65,0000.70,0000.26
2024-03-04 00:06:00,SystemResetWarning,0815.8,5.00,000.00,018.9,018.2,000.0,027.3,020.6,14.0,0000.0,0006.82,0000.72,0000.26
2024-03-04 00:07:00,SystemResetWarning,0815.8,4.99,000.00,018.9,018.2,000.0,027.3,020.5,13.9,0000.0,0007.26,0000.71,0000.26
2024-03-04 00:08:00,SystemResetWarning,0815.8,5.00,000.00,018.9,018.2,000.0,027.3,020.5,13.9,0000.0,0007.32,0000.69,0000.25
2024-03-04 00:09:00,SystemResetWarning,0815.8,5.01,000.00,018.9,018.2,000.0,027.3,020.5,14.0,0000.0,0006.86,0000.70,0000.25
2024-03-04 00:10:00,SystemResetWarning,0815.8,5.01,000.00,018.9,018.2,000.0,027.3,020.5,14.1,0000.0,0007.06,0000.73,0000.24
2024-03-04 00:11:00,SystemResetWarning,0815.8,5.00,000.00,018.9,018.2,000.0,027.3,020.5,14.0,0000.0,0007.06,0000.74,0000.24
2024-03-04 00:12:00,SystemResetWarning,0815.8,5.00,000.00,018.9,018.2,000.0,027.2,020.5,14.0,0000.0,0005.86,0000.77,0000.24
2024-03-04 00:13:00,SystemResetWarning,0815.9,4.99,000.00,018.9,018.2,000.0,027.2,020.5,14.1,0000.0,0005.58,0000.77,0000.23
2024-03-04 00:14:00,SystemResetWarning,0815.8,5.00,000.00,018.9,018.2,000.0,027.2,020.5,14.1,0000.0,0006.07,0000.75,0000.23
2024-03-04 00:15:00,SystemResetWarning,0815.8,5.00,000.00,018.9,018.2,000.0,027.2,020.5,14.1,0000.0,0006.26,0000.73,0000.22
2024-03-04 00:16:00,SystemResetWarning,0815.8,5.00,000.00,018.9,018.2,000.0,027.2,020.5,14.2,0000.0,0004.90,0000.71,0000.21
2024-03-04 00:17:00,SystemResetWarning,0815.8,5.00,000.00,018.9,018.2,000.0,027.2,020.5,14.1,0000.0,0005.08,0000.68,0000.20
2024-03-04 00:18:00,SystemResetWarning,0815.8,5.01,000.00,018.9,018.2,000.0,027.2,020.5,14.1,0000.0,0005.32,0000.66,0000.20
2024-03-04 00:19:00,SystemResetWarning,0815.7,5.01,000.00,018.8,018.2,000.0,027.2,020.5,14.1,0000.0,0005.08,0000.64,0000.20
2024-03-04 00:20:00,SystemResetWarning,0815.7,5.00,000.00,018.8,018.1,000.0,027.2,020.5,14.1,0000.0,0005.00,0000.64,0000.21
2024-03-04 00:21:00,SystemResetWarning,0815.7,5.00,000.00,018.8,018.1,000.0,027.2,020.4,14.1,0000.0,0004.75,0000.65,0000.21
2024-03-04 00:22:00,SystemResetWarning,0815.7,4.99,000.00,018.8,018.1,000.0,027.2,020.4,14.2,0000.0,0004.78,0000.68,0000.21
2024-03-04 00:23:00,SystemResetWarning,0815.6,4.99,000.00,018.8,018.1,000.0,027.2,020.4,14.3,0000.0,0004.76,0000.67,0000.21
2024-03-04 00:24:00,SystemResetWarning,0815.6,5.00,000.00,018.8,018.1,000.0,027.2,020.4,14.3,0000.0,0004.58,0000.63,0000.21
2024-03-04 00:25:00,SystemResetWarning,0815.6,5.00,000.00,018.8,018.1,000.0,027.2,020.4,14.3,0000.0,0003.71,0000.60,0000.20
2024-03-04 00:26:00,SystemResetWarning,0815.6,5.00,000.00,018.8,018.1,000.0,027.2,020.4,14.2,0000.0,0002.88,0000.57,0000.20
2024-03-04 00:27:00,SystemResetWarning,0815.6,5.01,000.00,018.8,018.1,000.0,027.2,020.4,14.3,0000.0,0002.51,0000.53,0000.19
2024-03-04 00:28:00,SystemResetWarning,0815.6,5.00,000.00,018.8,018.1,000.0,027.1,020.4,14.4,0000.0,0002.11,0000.53,0000.19
2024-03-04 00:29:00,SystemResetWarning,0815.6,5.00,000.00,018.8,018.1,000.0,027.1,020.4,14.3,0000.0,0001.58,0000.55,0000.20
2024-03-04 00:30:00,SystemResetWarning,0815.6,5.00,000.00,018.8,018.1,000.0,027.1,020.4,14.3,0000.0,0001.86,0000.59,0000.20
2024-03-04 00:31:00,SystemResetWarning,0815.5,5.00,000.00,018.8,018.1,000.0,027.1,020.4,14.3,0000.0,0001.80,0000.56,0000.19
2024-03-04 00:32:00,SystemResetWarning,0815.4,4.99,000.00,018.8,018.1,000.0,027.1,020.4,14.1,0000.0,0001.65,0000.52,0000.18
2024-03-04 00:33:00,SystemResetWarning,0815.5,5.00,000.00,018.8,018.1,000.0,027.1,020.4,14.0,0000.0,0001.47,0000.47,0000.17
2024-03-04 00:34:00,SystemResetWarning,0815.5,5.00,000.00,018.8,018.1,000.0,027.1,020.4,14.2,0000.0,0001.37,0000.44,0000.18
2024-03-04 00:35:00,SystemResetWarning,0815.5,5.00,000.00,018.8,018.0,000.0,027.1,020.4,14.2,0000.0,0001.30,0000.44,0000.18
2024-03-04 00:36:00,SystemResetWarning,0815.6,5.00,000.00,018.8,018.0,000.0,027.1,020.4,14.2,0000.0,0001.34,0000.46,0000.18
2024-03-04 00:37:00,SystemResetWarning,0815.6,5.00,000.00,018.8,018.0,000.0,027.1,020.3,14.2,0000.0,0002.40,0000.50,0000.19
2024-03-04 00:38:00,SystemResetWarning,0815.6,4.99,000.00,018.7,018.0,000.0,027.1,020.3,14.2,0000.0,0002.55,0000.53,0000.20
2024-03-04 00:39:00,SystemResetWarning,0815.4,5.00,000.00,018.7,018.0,000.0,027.1,020.3,14.2,0000.0,0002.71,0000.59,0000.20
2024-03-04 00:40:00,SystemResetWarning,0815.3,5.01,000.00,018.7,018.0,000.0,027.1,020.3,14.2,0000.0,0002.53,0000.58,0000.20
2024-03-04 00:41:00,SystemResetWarning,0815.4,5.00,000.00,018.7,018.0,000.0,027.1,020.3,14.2,0000.0,0002.24,0000.54,0000.20
2024-03-04 00:42:00,SystemResetWarning,0815.3,5.00,000.00,018.7,018.0,000.0,027.1,020.3,14.2,0000.0,0002.29,0000.55,0000.20
2024-03-04 00:43:00,SystemResetWarning,0815.4,5.00,000.00,018.7,018.0,000.0,027.0,020.3,14.3,0000.0,0002.27,0000.54,0000.20
2024-03-04 00:44:00,SystemResetWarning,0815.5,4.99,000.00,018.7,018.0,000.0,027.0,020.3,14.3,0000.0,0002.40,0000.53,0000.21
2024-03-04 00:45:00,SystemResetWarning,0815.5,5.00,000.00,018.7,018.0,000.0,027.0,020.3,14.3,0000.0,0002.39,0000.51,0000.21
2024-03-04 00:46:00,SystemResetWarning,0815.5,5.00,000.00,018.7,018.0,000.0,027.0,020.3,14.4,0000.0,0002.56,0000.48,0000.21
2024-03-04 00:47:00,SystemResetWarning,0815.5,5.01,000.00,018.7,018.0,000.0,027.0,020.3,14.4,0000.0,0002.90,0000.48,0000.21
2024-03-04 00:48:00,SystemResetWarning,0815.5,5.01,000.00,018.7,018.0,000.0,027.0,020.2,14.5,0000.0,0002.05,0000.46,0000.21
2024-03-04 00:49:00,SystemResetWarning,0815.5,5.00,000.00,018.7,017.9,000.0,027.0,020.2,14.5,0000.0,0001.73,0000.43,0000.20
2024-03-04 00:50:00,SystemResetWarning,0815.6,5.00,000.00,018.7,017.9,000.0,027.0,020.3,14.5,0000.0,0001.63,0000.40,0000.20
2024-03-04 00:51:00,SystemResetWarning,0815.6,5.00,000.00,018.7,017.9,000.0,027.0,020.2,14.5,0000.0,0001.62,0000.42,0000.21
2024-03-04 00:52:00,SystemResetWarning,0815.6,4.99,000.00,018.6,017.9,000.0,027.0,020.2,14.5,0000.0,0001.89,0000.45,0000.22
2024-03-04 00:53:00,SystemResetWarning,0815.6,5.00,000.00,018.6,017.9,000.0,027.0,020.2,14.5,0000.0,0003.15,0000.52,0000.22
2024-03-04 00:54:00,SystemResetWarning,0815.6,5.00,000.00,018.6,017.9,000.0,027.0,020.2,14.6,0000.0,0003.28,0000.56,0000.23
2024-03-04 00:55:00,SystemResetWarning,0815.6,5.00,000.00,018.6,017.9,000.0,027.0,020.2,14.5,0000.0,0003.17,0000.58,0000.23
2024-03-04 00:56:00,SystemResetWarning,0815.6,5.00,000.00,018.6,017.9,000.0,027.0,020.2,14.6,0000.0,0003.14,0000.58,0000.24
2024-03-04 00:57:00,SystemResetWarning,0815.6,5.00,000.00,018.6,017.9,000.0,027.0,020.2,14.5,0000.0,0003.30,0000.61,0000.25
2024-03-04 00:58:00,SystemResetWarning,0815.6,5.00,000.00,018.6,017.9,000.0,027.0,020.2,14.5,0000.0,0002.77,0000.60,0000.25
2024-03-04 00:59:00,SystemResetWarning,0815.6,5.00,000.00,018.6,017.9,000.0,026.9,020.2,14.6,0000.0,0002.80,0000.60,0000.25
